Time,TemperatureF,DewpointF,PressureIn,WindDirection,WindDirectionDegrees,WindSpeedMPH,WindSpeedGustMPH,Humidity,HourlyPrecipIn,Conditions,Clouds,dailyrainin,SoftwareType,DateUTC
2014-04-16 00:05:00,58.5,49.1,29.71,SSW,192,5.4,14.5,71,0.24,,,0.00,VWS V12.08,2014-04-16 04:05:00,
2014-04-16 00:10:00,58.5,49.8,29.71,South,176,6.3,14.1,73,0.28,,,0.04,VWS V12.08,2014-04-16 04:10:00,
2014-04-16 00:15:00,58.3,50.0,29.71,WSW,256,4.0,14.1,74,0.28,,,0.04,VWS V12.08,2014-04-16 04:15:00,
2014-04-16 00:25:00,57.0,47.0,29.74,WSW,241,5.8,8.3,69,0.31,,,0.08,VWS V12.08,2014-04-16 04:25:00,
2014-04-16 00:30:00,56.8,46.8,29.74,SW,229,8.1,11.0,69,0.31,,,0.08,VWS V12.08,2014-04-16 04:30:00,
2014-04-16 00:35:00,56.5,46.5,29.77,SW,223,2.2,11.0,69,0.31,,,0.08,VWS V12.08,2014-04-16 04:35:00,
2014-04-16 00:40:00,56.1,45.7,29.77,SW,226,3.6,11.0,68,0.31,,,0.08,VWS V12.08,2014-04-16 04:40:00,
2014-04-16 00:45:00,55.8,45.8,29.77,WSW,246,5.8,5.8,69,0.32,,,0.08,VWS V12.08,2014-04-16 04:45:00,
2014-04-16 00:55:00,55.6,45.6,29.77,SW,220,3.1,7.2,69,0.32,,,0.08,VWS V12.08,2014-04-16 04:55:00,
2014-04-16 01:05:00,54.7,43.6,29.77,NW,326,6.3,8.3,66,0.32,,,0.08,VWS V12.08,2014-04-16 05:05:00,
2014-04-16 01:10:00,50.0,34.5,29.80,NW,316,5.8,10.1,55,0.08,,,0.08,VWS V12.08,2014-04-16 05:10:00,
2014-04-16 01:16:00,48.6,34.9,29.80,NE,56,6.7,10.5,59,0.12,,,0.12,VWS V12.08,2014-04-16 05:16:00,
2014-04-16 01:25:00,46.8,34.0,29.83,NNW,340,5.8,10.1,61,0.08,,,0.12,VWS V12.08,2014-04-16 05:25:00,
2014-04-16 01:31:00,46.0,33.8,29.83,North,3,7.6,10.1,62,0.08,,,0.12,VWS V12.08,2014-04-16 05:31:00,
2014-04-16 01:40:00,45.0,33.9,29.83,NNW,342,5.8,12.3,65,0.08,,,0.12,VWS V12.08,2014-04-16 05:40:00,
2014-04-16 01:46:00,44.6,34.0,29.83,North,1,8.1,11.0,66,0.04,,,0.12,VWS V12.08,2014-04-16 05:46:00,
2014-04-16 01:55:00,44.1,33.8,29.83,West,277,6.3,12.8,67,0.04,,,0.12,VWS V12.08,2014-04-16 05:55:00,
2014-04-16 02:05:00,43.5,33.3,29.83,NNW,330,3.1,12.8,67,0.04,,,0.12,VWS V12.08,2014-04-16 06:05:00,
2014-04-16 02:11:00,42.8,33.0,29.83,NW,325,8.1,12.8,68,0.08,,,0.16,VWS V12.08,2014-04-16 06:11:00,
2014-04-16 02:16:00,42.6,32.8,29.83,NNW,327,2.7,12.8,68,0.08,,,0.16,VWS V12.08,2014-04-16 06:16:00,
2014-04-16 02:26:00,42.1,32.3,29.83,NNW,337,4.0,11.4,68,0.04,,,0.16,VWS V12.08,2014-04-16 06:26:00,
2014-04-16 02:31:00,42.1,32.7,29.83,NNE,22,3.6,11.4,69,0.04,,,0.16,VWS V12.08,2014-04-16 06:31:00,
2014-04-16 02:41:00,41.7,32.7,29.83,NW,314,4.9,11.4,70,0.08,,,0.20,VWS V12.08,2014-04-16 06:41:00,
2014-04-16 02:46:00,41.5,32.5,29.83,NNW,343,8.1,8.1,70,0.08,,,0.20,VWS V12.08,2014-04-16 06:46:00,
2014-04-16 02:56:00,41.4,32.7,29.85,NNW,333,5.8,8.7,71,0.12,,,0.24,VWS V12.08,2014-04-16 06:56:00,
2014-04-16 03:05:00,41.4,32.7,29.85,North,1,3.6,8.7,71,0.12,,,0.24,VWS V12.08,2014-04-16 07:05:00,
2014-04-16 03:11:00,41.0,32.0,29.85,West,273,5.4,8.3,70,0.12,,,0.24,VWS V12.08,2014-04-16 07:11:00,
2014-04-16 03:16:00,40.8,32.2,29.85,North,1,6.3,8.7,71,0.16,,,0.28,VWS V12.08,2014-04-16 07:16:00,
2014-04-16 03:26:00,40.5,31.8,29.85,NW,325,5.4,8.7,71,0.12,,,0.28,VWS V12.08,2014-04-16 07:26:00,
2014-04-16 03:31:00,40.5,31.8,29.85,North,1,8.3,10.1,71,0.12,,,0.28,VWS V12.08,2014-04-16 07:31:00,
2014-04-16 03:41:00,40.1,31.5,29.88,North,353,8.7,11.9,71,0.12,,,0.28,VWS V12.08,2014-04-16 07:41:00,
2014-04-16 03:46:00,39.7,31.1,29.88,NW,318,5.8,9.2,71,0.08,,,0.28,VWS V12.08,2014-04-16 07:46:00,
2014-04-16 03:56:00,39.6,31.0,29.85,West,280,3.6,10.5,71,0.08,,,0.28,VWS V12.08,2014-04-16 07:56:00,
2014-04-16 04:04:00,39.6,31.0,29.85,North,11,9.2,10.5,71,0.08,,,0.28,VWS V12.08,2014-04-16 08:04:00,
2014-04-16 04:10:00,39.0,29.7,29.88,NNW,333,4.0,16.3,69,0.08,,,0.31,VWS V12.08,2014-04-16 08:10:00,
2014-04-16 04:15:00,38.8,29.5,29.88,NNW,327,5.8,16.3,69,0.08,,,0.31,VWS V12.08,2014-04-16 08:15:00,
2014-04-16 04:25:00,38.7,29.7,29.88,North,349,8.1,9.2,70,0.08,,,0.35,VWS V12.08,2014-04-16 08:25:00,
2014-04-16 04:30:00,38.7,29.7,29.88,North,350,6.3,9.2,70,0.08,,,0.35,VWS V12.08,2014-04-16 08:30:00,
2014-04-16 04:40:00,38.5,29.9,29.91,NNW,348,5.4,9.2,71,0.08,,,0.35,VWS V12.08,2014-04-16 08:40:00,
2014-04-16 04:45:00,38.5,29.9,29.91,North,353,3.6,10.5,71,0.08,,,0.35,VWS V12.08,2014-04-16 08:45:00,
2014-04-16 04:55:00,38.5,29.9,29.94,North,1,2.7,12.3,71,0.08,,,0.35,VWS V12.08,2014-04-16 08:55:00,
2014-04-16 05:04:00,38.3,29.4,29.94,West,281,4.0,12.3,70,0.08,,,0.35,VWS V12.08,2014-04-16 09:04:00,
2014-04-16 05:10:00,38.1,29.2,29.94,WNW,283,4.0,8.3,70,0.12,,,0.39,VWS V12.08,2014-04-16 09:10:00,
2014-04-16 05:15:00,38.1,29.2,29.94,NW,313,6.3,8.3,70,0.12,,,0.39,VWS V12.08,2014-04-16 09:15:00,
2014-04-16 05:25:00,37.8,28.9,29.97,North,1,7.6,8.7,70,0.12,,,0.43,VWS V12.08,2014-04-16 09:25:00,
2014-04-16 05:30:00,37.8,28.9,29.97,NE,46,3.6,8.7,70,0.16,,,0.47,VWS V12.08,2014-04-16 09:30:00,
2014-04-16 05:40:00,37.8,29.2,29.94,NW,316,3.1,8.7,71,0.16,,,0.47,VWS V12.08,2014-04-16 09:40:00,
2014-04-16 05:45:00,37.9,29.7,29.94,NNW,334,5.8,6.3,72,0.16,,,0.51,VWS V12.08,2014-04-16 09:45:00,
2014-04-16 05:55:00,37.4,29.2,30.00,NW,317,5.4,10.1,72,0.20,,,0.55,VWS V12.08,2014-04-16 09:55:00,
2014-04-16 06:05:00,37.4,29.2,30.00,North,349,5.4,10.1,72,0.20,,,0.55,VWS V12.08,2014-04-16 10:05:00,
2014-04-16 06:10:00,37.6,29.7,30.00,NE,56,7.6,8.1,73,0.24,,,0.59,VWS V12.08,2014-04-16 10:10:00,
2014-04-16 06:15:00,37.4,29.5,30.00,North,353,5.4,8.7,73,0.24,,,0.59,VWS V12.08,2014-04-16 10:15:00,
2014-04-16 06:25:00,36.5,28.0,30.06,North,350,2.7,7.6,71,0.20,,,0.63,VWS V12.08,2014-04-16 10:25:00,
2014-04-16 06:30:00,36.0,27.1,30.06,NNW,345,4.9,8.3,70,0.20,,,0.63,VWS V12.08,2014-04-16 10:30:00,
2014-04-16 06:40:00,35.4,26.6,30.06,North,349,3.1,10.5,70,0.20,,,0.63,VWS V12.08,2014-04-16 10:40:00,
2014-04-16 06:45:00,35.1,26.6,30.06,NNW,328,4.0,10.5,71,0.16,,,0.63,VWS V12.08,2014-04-16 10:45:00,
2014-04-16 06:55:00,34.2,25.1,30.06,North,9,2.7,10.5,69,0.16,,,0.63,VWS V12.08,2014-04-16 10:55:00,
2014-04-16 07:05:00,33.4,24.0,30.06,West,277,6.3,11.4,68,0.16,,,0.63,VWS V12.08,2014-04-16 11:05:00,
2014-04-16 07:10:00,33.4,24.4,30.06,NNW,337,5.8,12.3,69,0.08,,,0.63,VWS V12.08,2014-04-16 11:10:00,
2014-04-16 07:15:00,33.6,24.5,30.06,NE,39,5.4,12.3,69,0.08,,,0.63,VWS V12.08,2014-04-16 11:15:00,
2014-04-16 07:25:00,33.6,24.2,30.12,North,353,5.8,8.3,68,0.00,,,0.63,VWS V12.08,2014-04-16 11:25:00,
2014-04-16 07:30:00,33.6,23.5,30.12,NNW,335,6.3,9.6,66,0.00,,,0.63,VWS V12.08,2014-04-16 11:30:00,
2014-04-16 07:40:00,33.6,20.4,30.12,NNW,337,4.0,10.1,58,0.00,,,0.63,VWS V12.08,2014-04-16 11:40:00,
2014-04-16 07:45:00,33.6,17.9,30.12,North,2,6.3,11.0,52,0.00,,,0.63,VWS V12.08,2014-04-16 11:45:00,
2014-04-16 07:55:00,33.6,15.6,30.15,North,1,5.4,11.0,47,0.00,,,0.63,VWS V12.08,2014-04-16 11:55:00,
2014-04-16 08:05:00,34.0,17.3,30.15,NNE,14,6.3,11.0,50,0.00,,,0.63,VWS V12.08,2014-04-16 12:05:00,
2014-04-16 08:10:00,34.5,14.9,30.18,NW,314,6.3,10.5,44,0.00,,,0.63,VWS V12.08,2014-04-16 12:10:00,
2014-04-16 08:15:00,34.7,14.0,30.18,NNW,332,9.2,10.5,42,0.00,,,0.63,VWS V12.08,2014-04-16 12:15:00,
2014-04-16 08:25:00,34.9,9.4,30.18,WNW,303,6.3,8.7,34,0.00,,,0.63,VWS V12.08,2014-04-16 12:25:00,
2014-04-16 08:30:00,34.9,10.0,30.18,North,1,8.3,12.3,35,0.00,,,0.63,VWS V12.08,2014-04-16 12:30:00,
2014-04-16 08:40:00,35.1,9.5,30.18,NW,324,5.8,12.3,34,0.00,,,0.63,VWS V12.08,2014-04-16 12:40:00,
2014-04-16 08:45:00,34.9,8.7,30.18,North,350,8.1,11.0,33,0.00,,,0.63,VWS V12.08,2014-04-16 12:45:00,
2014-04-16 08:55:00,34.7,2.5,30.24,North,353,5.8,12.3,25,0.00,,,0.63,VWS V12.08,2014-04-16 12:55:00,
2014-04-16 09:05:00,34.9,2.6,30.24,WNW,284,10.5,13.2,25,0.00,,,0.63,VWS V12.08,2014-04-16 13:05:00,
2014-04-16 09:10:00,35.2,-1.8,30.24,NNW,342,6.3,11.9,20,0.00,,,0.63,VWS V12.08,2014-04-16 13:10:00,
2014-04-16 09:16:00,35.2,0.2,30.24,NW,322,8.1,11.9,22,0.00,,,0.63,VWS V12.08,2014-04-16 13:16:00,